�������l�o���
Date,Time,MP-1(��Sv/h),MP-2(��Sv/h),MP-3(��Sv/h),MP-4(��Sv/h),MP-5(��Sv/h),MP-6(��Sv/h),MP-7(��Sv/h),MP-8(��Sv/h),����,����(m/s),���J
2022/10/02,00:00,0.578,0.836,0.534,1.037,0.738,0.339,0.593,0.558,�k��,4.0,��
2022/10/02,00:10,0.580,0.837,0.533,1.036,0.739,0.340,0.594,0.556,�k��,3.6,��
2022/10/02,00:20,0.578,0.836,0.535,1.036,0.737,0.340,0.594,0.559,�k��,3.2,��
2022/10/02,00:30,0.578,0.838,0.533,1.037,0.738,0.340,0.592,0.559,�k�k��,2.3,��
2022/10/02,00:40,0.578,0.837,0.534,1.037,0.738,0.339,0.594,0.558,�k��,2.5,��
2022/10/02,00:50,0.577,0.835,0.534,1.036,0.736,0.339,0.595,0.561,�k��,3.9,��
2022/10/02,01:00,0.577,0.836,0.533,1.036,0.737,0.340,0.593,0.558,�k�k��,2.6,��
2022/10/02,01:10,0.577,0.836,0.535,1.037,0.736,0.339,0.594,0.558,�k��,2.9,��
2022/10/02,01:20,0.578,0.835,0.534,1.038,0.736,0.340,0.593,0.558,�k�k��,2.9,��
2022/10/02,01:30,0.576,0.836,0.534,1.037,0.736,0.339,0.593,0.556,�k�k��,2.6,��
2022/10/02,01:40,0.578,0.835,0.534,1.036,0.735,0.339,0.593,0.557,�k��,3.0,��
2022/10/02,01:50,0.578,0.836,0.533,1.035,0.737,0.340,0.592,0.559,�k�k��,2.5,��
2022/10/02,02:00,0.576,0.835,0.534,1.036,0.736,0.340,0.592,0.557,�k��,3.0,��
2022/10/02,02:10,0.576,0.834,0.533,1.035,0.737,0.339,0.593,0.558,�k�k��,2.6,��
2022/10/02,02:20,0.578,0.835,0.533,1.037,0.735,0.339,0.593,0.559,�k��,2.8,��
2022/10/02,02:30,0.575,0.834,0.533,1.037,0.738,0.340,0.596,0.558,�k��,3.7,��
2022/10/02,02:40,0.577,0.834,0.532,1.038,0.737,0.340,0.592,0.559,�k��,3.5,��
2022/10/02,02:50,0.578,0.835,0.534,1.038,0.736,0.340,0.593,0.557,�k��,4.0,��
2022/10/02,03:00,0.578,0.836,0.535,1.038,0.737,0.341,0.594,0.558,�k��,4.2,��
2022/10/02,03:10,0.576,0.834,0.532,1.037,0.734,0.340,0.594,0.558,�k��,4.2,��
2022/10/02,03:20,0.577,0.835,0.534,1.038,0.738,0.340,0.595,0.558,�k��,4.2,��
2022/10/02,03:30,0.577,0.833,0.535,1.036,0.735,0.340,0.594,0.558,�k��,4.4,��
2022/10/02,03:40,0.576,0.835,0.533,1.038,0.736,0.339,0.594,0.559,�k��,4.5,��
2022/10/02,03:50,0.576,0.836,0.533,1.038,0.737,0.341,0.594,0.560,�k��,4.8,��
2022/10/02,04:00,0.577,0.833,0.532,1.038,0.736,0.340,0.593,0.558,�k��,4.8,��
2022/10/02,04:10,0.575,0.837,0.535,1.037,0.736,0.339,0.593,0.558,�k��,5.0,��
2022/10/02,04:20,0.578,0.833,0.534,1.036,0.738,0.340,0.593,0.559,�k��,5.1,��
2022/10/02,04:30,0.576,0.833,0.532,1.038,0.736,0.340,0.594,0.558,�k��,4.6,��
2022/10/02,04:40,0.578,0.834,0.532,1.038,0.736,0.339,0.594,0.560,�k��,4.3,��
2022/10/02,04:50,0.579,0.835,0.534,1.037,0.734,0.341,0.593,0.558,�k��,4.6,��
2022/10/02,05:00,0.576,0.834,0.535,1.038,0.736,0.341,0.594,0.558,�k��,4.8,��
2022/10/02,05:10,0.578,0.834,0.534,1.038,0.734,0.338,0.594,0.560,�k��,4.8,��
2022/10/02,05:20,0.578,0.835,0.533,1.035,0.736,0.339,0.595,0.557,�k�k��,4.7,��
2022/10/02,05:30,0.576,0.835,0.534,1.038,0.736,0.339,0.593,0.557,�k�k��,4.5,��
2022/10/02,05:40,0.578,0.834,0.534,1.037,0.737,0.338,0.594,0.559,�k�k��,3.6,��
2022/10/02,05:50,0.577,0.835,0.534,1.038,0.736,0.341,0.594,0.558,�k�k��,3.8,��
2022/10/02,06:00,0.576,0.837,0.533,1.037,0.737,0.341,0.593,0.559,�k�k��,4.2,��
2022/10/02,06:10,0.578,0.835,0.534,1.038,0.736,0.340,0.594,0.559,�k�k��,4.3,��
2022/10/02,06:20,0.577,0.835,0.534,1.040,0.736,0.340,0.594,0.558,�k�k��,5.0,��
2022/10/02,06:30,0.578,0.834,0.533,1.038,0.736,0.340,0.593,0.559,�k�k��,5.2,��
2022/10/02,06:40,0.577,0.835,0.534,1.038,0.735,0.340,0.592,0.560,�k�k��,4.6,��
2022/10/02,06:50,0.576,0.835,0.534,1.040,0.736,0.341,0.593,0.558,�k�k��,5.2,��
2022/10/02,07:00,0.578,0.835,0.537,1.038,0.735,0.341,0.594,0.556,�k�k��,5.1,��
2022/10/02,07:10,0.578,0.834,0.535,1.038,0.739,0.340,0.594,0.558,�k�k��,3.7,��
2022/10/02,07:20,0.578,0.835,0.536,1.039,0.737,0.341,0.594,0.559,�k��,3.6,��
2022/10/02,07:30,0.578,0.837,0.535,1.039,0.736,0.340,0.594,0.558,�k��,3.6,��
2022/10/02,07:40,0.579,0.836,0.534,1.038,0.735,0.342,0.594,0.558,�k��,4.1,��
2022/10/02,07:50,0.580,0.836,0.533,1.037,0.737,0.341,0.593,0.558,�k��,3.2,��
2022/10/02,08:00,0.579,0.836,0.534,1.038,0.738,0.341,0.594,0.558,�k��,2.8,��
2022/10/02,08:10,0.581,0.837,0.535,1.038,0.737,0.341,0.593,0.559,�k�k��,2.3,��
2022/10/02,08:20,0.579,0.836,0.535,1.039,0.739,0.340,0.592,0.559,�k,3.1,��
2022/10/02,08:30,0.578,0.834,0.535,1.039,0.737,0.341,0.594,0.561,�k,2.0,��
2022/10/02,08:40,0.579,0.834,0.535,1.039,0.736,0.341,0.592,0.561,�k,3.5,��
2022/10/02,08:50,0.579,0.836,0.535,1.039,0.737,0.341,0.594,0.559,�k,3.6,��
2022/10/02,09:00,0.580,0.835,0.536,1.040,0.739,0.340,0.592,0.559,�k,2.9,��
2022/10/02,09:10,0.580,0.837,0.535,1.041,0.737,0.340,0.594,0.558,�k�k��,3.9,��
2022/10/02,09:20,0.579,0.835,0.533,1.039,0.738,0.340,0.593,0.557,�k�k��,4.5,��
2022/10/02,09:30,0.579,0.836,0.534,1.041,0.739,0.339,0.593,0.557,�k�k��,4.3,��
2022/10/02,09:40,0.581,0.838,0.534,1.039,0.738,0.339,0.595,0.558,�k,3.7,��
2022/10/02,09:50,0.579,0.837,0.534,1.039,0.740,0.339,0.593,0.559,�k,4.0,��
2022/10/02,10:00,0.580,0.838,0.533,1.040,0.738,0.338,0.594,0.559,�k�k��,4.3,��
2022/10/02,10:10,0.579,0.837,0.534,1.040,0.737,0.339,0.593,0.557,�k,4.1,��
2022/10/02,10:20,0.580,0.836,0.534,1.040,0.739,0.339,0.592,0.557,�k,4.1,��
2022/10/02,10:30,0.581,0.838,0.535,1.038,0.739,0.340,0.594,0.557,�k,4.4,��
2022/10/02,10:40,0.582,0.837,0.534,1.042,0.737,0.338,0.594,0.556,�k,4.1,��
2022/10/02,10:50,0.579,0.837,0.535,1.042,0.739,0.339,0.594,0.558,�k,4.2,��
2022/10/02,11:00,0.580,0.838,0.535,1.040,0.740,0.340,0.594,0.557,�k�k��,4.1,��
2022/10/02,11:10,0.581,0.838,0.534,1.040,0.739,0.340,0.593,0.557,�k�k��,5.6,��
2022/10/02,11:20,0.582,0.838,0.536,1.042,0.739,0.338,0.592,0.559,�k�k��,6.3,��
2022/10/02,11:30,0.582,0.838,0.536,1.040,0.741,0.339,0.592,0.559,�k�k��,6.2,��
2022/10/02,11:40,0.581,0.838,0.534,1.040,0.741,0.339,0.593,0.558,�k�k��,5.7,��
2022/10/02,11:50,0.580,0.838,0.536,1.042,0.741,0.340,0.597,0.559,�k�k��,5.9,��
2022/10/02,12:00,0.582,0.838,0.535,1.041,0.740,0.340,0.594,0.556,�k�k��,6.9,��
2022/10/02,12:10,0.582,0.839,0.537,1.042,0.742,0.339,0.596,0.558,�k�k��,6.3,��
2022/10/02,12:20,0.580,0.841,0.537,1.043,0.740,0.341,0.594,0.558,�k�k��,5.9,��
2022/10/02,12:30,0.580,0.841,0.536,1.044,0.742,0.339,0.592,0.558,�k�k��,5.8,��
2022/10/02,12:40,0.580,0.840,0.538,1.042,0.741,0.340,0.593,0.559,�k�k��,5.5,��
2022/10/02,12:50,0.581,0.840,0.535,1.041,0.740,0.340,0.593,0.558,�k�k��,5.8,��
2022/10/02,13:00,0.581,0.839,0.537,1.042,0.742,0.339,0.593,0.558,�k�k��,5.9,��
2022/10/02,13:10,0.582,0.839,0.534,1.042,0.742,0.338,0.594,0.559,�k�k��,5.8,��
2022/10/02,13:20,0.582,0.839,0.536,1.043,0.743,0.338,0.594,0.558,�k�k��,5.0,��
2022/10/02,13:30,0.581,0.841,0.535,1.043,0.743,0.339,0.595,0.557,�k�k��,5.5,��
2022/10/02,13:40,0.583,0.842,0.538,1.041,0.744,0.339,0.593,0.559,�k�k��,5.0,��
2022/10/02,13:50,0.582,0.841,0.536,1.043,0.743,0.340,0.593,0.560,�k�k��,5.2,��
2022/10/02,14:00,0.581,0.841,0.536,1.041,0.744,0.339,0.593,0.558,�k�k��,5.8,��
2022/10/02,14:10,0.582,0.841,0.537,1.041,0.742,0.339,0.593,0.559,�k�k��,4.9,��
2022/10/02,14:20,0.580,0.842,0.536,1.041,0.742,0.340,0.593,0.559,�k�k��,4.2,��
2022/10/02,14:30,0.581,0.839,0.535,1.042,0.743,0.338,0.593,0.558,�k��,4.2,��
2022/10/02,14:40,0.581,0.841,0.537,1.042,0.744,0.341,0.592,0.558,�k�k��,4.8,��
2022/10/02,14:50,0.582,0.841,0.538,1.043,0.743,0.340,0.594,0.558,�k�k��,4.8,��
2022/10/02,15:00,0.581,0.839,0.537,1.042,0.743,0.340,0.593,0.559,�k�k��,4.6,��
2022/10/02,15:10,0.581,0.840,0.535,1.043,0.741,0.339,0.593,0.557,�k�k��,4.0,��
2022/10/02,15:20,0.580,0.839,0.536,1.043,0.741,0.337,0.591,0.559,�k�k��,3.9,��
2022/10/02,15:30,0.581,0.839,0.536,1.044,0.742,0.340,0.592,0.560,�k�k��,4.6,��
2022/10/02,15:40,0.581,0.841,0.534,1.043,0.744,0.339,0.591,0.558,�k�k��,3.8,��
2022/10/02,15:50,0.581,0.840,0.535,1.044,0.742,0.340,0.592,0.558,�k�k��,3.8,��
2022/10/02,16:00,0.581,0.840,0.534,1.043,0.740,0.341,0.592,0.558,�k�k��,3.8,��
2022/10/02,16:10,0.580,0.839,0.534,1.041,0.743,0.339,0.593,0.558,�k,3.3,��
2022/10/02,16:20,0.581,0.838,0.536,1.041,0.741,0.339,0.592,0.558,�k,3.1,��
2022/10/02,16:30,0.579,0.839,0.536,1.043,0.741,0.342,0.591,0.559,�k,3.2,��
2022/10/02,16:40,0.581,0.839,0.535,1.039,0.740,0.340,0.591,0.558,�k,2.5,��
2022/10/02,16:50,0.581,0.840,0.535,1.042,0.742,0.339,0.592,0.558,�k,3.1,��
2022/10/02,17:00,0.582,0.841,0.534,1.042,0.742,0.340,0.592,0.560,�k,2.6,��
2022/10/02,17:10,0.580,0.841,0.534,1.042,0.742,0.341,0.593,0.560,�k,2.3,��
2022/10/02,17:20,0.583,0.841,0.536,1.043,0.742,0.340,0.593,0.560,�k,2.9,��
2022/10/02,17:30,0.581,0.841,0.537,1.041,0.743,0.340,0.594,0.560,�k,3.2,��
2022/10/02,17:40,0.583,0.843,0.536,1.042,0.743,0.341,0.594,0.562,�k,3.2,��
2022/10/02,17:50,0.581,0.844,0.539,1.043,0.743,0.341,0.593,0.560,�k,3.4,��
2022/10/02,18:00,0.581,0.843,0.538,1.041,0.744,0.340,0.593,0.560,�k,3.5,��
2022/10/02,18:10,0.583,0.845,0.538,1.042,0.744,0.341,0.594,0.561,�k,3.8,��
2022/10/02,18:20,0.581,0.842,0.535,1.041,0.741,0.341,0.593,0.560,�k,3.8,��
2022/10/02,18:30,0.583,0.842,0.539,1.045,0.744,0.342,0.592,0.560,�k�k��,3.2,��
2022/10/02,18:40,0.584,0.843,0.537,1.041,0.744,0.340,0.593,0.560,�k�k��,2.6,��
2022/10/02,18:50,0.582,0.843,0.538,1.041,0.744,0.340,0.593,0.560,�k�k��,2.9,��
2022/10/02,19:00,0.582,0.843,0.538,1.039,0.745,0.341,0.594,0.560,�k�k��,3.2,��
2022/10/02,19:10,0.582,0.841,0.537,1.042,0.743,0.340,0.593,0.560,�k,2.9,��
2022/10/02,19:20,0.581,0.843,0.536,1.039,0.744,0.339,0.593,0.559,�k�k��,3.0,��
2022/10/02,19:30,0.582,0.843,0.537,1.041,0.744,0.340,0.592,0.561,�k�k��,2.6,��
2022/10/02,19:40,0.581,0.842,0.537,1.040,0.743,0.339,0.593,0.559,�k�k��,2.9,��
2022/10/02,19:50,0.582,0.842,0.535,1.040,0.743,0.340,0.592,0.560,�k�k��,2.6,��
2022/10/02,20:00,0.581,0.842,0.538,1.040,0.743,0.341,0.592,0.558,�k�k��,2.8,��
2022/10/02,20:10,0.581,0.843,0.537,1.042,0.740,0.340,0.593,0.559,�k�k��,3.2,��
2022/10/02,20:20,0.583,0.841,0.537,1.041,0.743,0.341,0.593,0.558,�k�k��,3.1,��
2022/10/02,20:30,0.581,0.841,0.535,1.041,0.743,0.339,0.591,0.559,�k��,3.1,��
2022/10/02,20:40,0.581,0.839,0.536,1.042,0.744,0.341,0.593,0.560,�k�k��,2.8,��
2022/10/02,20:50,0.581,0.842,0.535,1.041,0.742,0.341,0.595,0.560,�k�k��,2.8,��
2022/10/02,21:00,0.580,0.841,0.535,1.041,0.742,0.340,0.593,0.558,�k�k��,2.3,��
2022/10/02,21:10,0.581,0.840,0.536,1.041,0.742,0.340,0.594,0.561,�k�k��,3.1,��
2022/10/02,21:20,0.581,0.842,0.538,1.042,0.742,0.341,0.593,0.560,�k�k��,3.8,��
2022/10/02,21:30,0.580,0.843,0.535,1.041,0.743,0.341,0.594,0.558,�k�k��,3.7,��
2022/10/02,21:40,0.583,0.840,0.537,1.042,0.743,0.339,0.593,0.560,�k��,4.2,��
2022/10/02,21:50,0.581,0.842,0.537,1.041,0.742,0.341,0.594,0.557,�k��,4.3,��
2022/10/02,22:00,0.582,0.840,0.536,1.041,0.741,0.340,0.594,0.558,�k�k��,4.1,��
2022/10/02,22:10,0.581,0.841,0.536,1.042,0.740,0.340,0.593,0.560,�k�k��,4.0,��
2022/10/02,22:20,0.580,0.838,0.535,1.044,0.742,0.340,0.594,0.558,�k�k��,3.8,��
2022/10/02,22:30,0.581,0.842,0.536,1.040,0.741,0.340,0.595,0.560,�k�k��,3.7,��
2022/10/02,22:40,0.581,0.843,0.536,1.041,0.744,0.341,0.593,0.559,�k��,2.8,��
2022/10/02,22:50,0.581,0.841,0.536,1.041,0.742,0.340,0.594,0.559,�k��,2.3,��
2022/10/02,23:00,0.581,0.841,0.535,1.040,0.743,0.340,0.594,0.558,�k��,2.6,��
2022/10/02,23:10,0.581,0.842,0.535,1.043,0.741,0.340,0.593,0.560,�k��,2.6,��
2022/10/02,23:20,0.579,0.840,0.537,1.042,0.741,0.340,0.594,0.558,�k��,3.2,��
2022/10/02,23:30,0.580,0.839,0.535,1.041,0.743,0.340,0.594,0.560,�k��,2.6,��
2022/10/02,23:40,0.581,0.838,0.534,1.041,0.742,0.341,0.593,0.559,�k�k��,2.5,��
2022/10/02,23:50,0.579,0.838,0.536,1.042,0.742,0.340,0.592,0.558,�k��,2.3,��
